TIANTONG-1 1 (41725 NORAD) Tracking and Keplerian Element Data

This shows tracking and keplerian element data for the satellite.

Feedback or suggestion? Click here.




ElementValue
Catalog41725
NameTIANTONG-1 1
Epoch Orbit794
Epoch Day265.17757832
Epoch Year2018
RAAN326.8343
Inclination3.9194
Eccentricity0.0001851
Argument of Perigee312.8643
Mean Anonmoly246.5789
Mean Motion1.00269764
Decay Rate-3.32E-06
L11 41725U 16048A 18265.17757832 -.00000332 00000-0 00000-0 0 9999
L22 41725 3.9194 326.8343 0001851 312.8643 246.5789 1.00269764 7944

Live tracking and technical data element details for TIANTONG-1 1 (NORAD 41725). TIANTONG-1 1 can be tracked NOW for your location showing map with azimuth and elevation plus other details from your city location.

Track the satellite on the map from your city or location and see movement details for azimuth, elevation, latitude, longitude, range, height, and movement on the map or in text.







IsCatalogInMostPopularTable: catalog: 41725, numindb: 200
Update: records affected: 1



GetName: 41725 TIANTONG-1 1

Hit Count: updated at: Tue, 25 Sep 2018 15:06:48 GMT